Showing default

JILIN-01-10, 43946

Orbit data source: Space-Track

JILIN-01-10, 43946 is a Chinese payload satellite in SSO that was launched on Mon, 21 Jan 2019 UTC via a CHANG ZHENG 11 launch vehicle from the Jiuquan Satellite Launch Center, China (JSC). Payload-class satellites include a variety of spacecraft equipped with specific instruments for various scientific and technological missions. These include communications satellites like Starlink; space stations such as the ISS; scientific satellites like the Hubble; Earth observation satellites from companies like Planet Labs, Umbra, and HawkEye 360; GPS; miniature CubeSats for education and research; and military/defense satellites.

Loading next visibility...
Identifier
43946, 2019-005E
Orbit
SSO
Country
Flag of CNCN / PRC
Related business
Manufacturer
CIOMP
Mission
Operational Commercial Imaging
Bus & Motor
JL-1, Unknown motor
Mass
95 kg wet, 95 kg dry
Launch date (UTC)
2019-01-21 (7 years ago)
Launch vehicle
CHANG ZHENG 11
Launch site
Jiuquan Satellite Launch Center, China (JSC)
Object type
Payload
Rocket body
Debris
Shape & HBR
Box, 0.8 m
Radar Cross Section
2.625 m², Medium (>0.1 m² and < 1m²)

Expand to show TLE details & history
Last TLE update: 2 days ago

TLE from 2 days ago
0 JILIN-01-10
1 43946U 19005E   26171.40579458  .00004638  00000-0  18455-3 0  9997
2 43946  97.4785 270.2101 0006607 264.8826  95.1658 15.25750603409805
Epoch: 2026-06-20T09:44Z
TLE epoch observation values (Epoch: 2026-06-20T09:44:20.651Z)
Latitude
-0.00004°
Longitude
-144.49682°
Altitude
492.04 km
Speed
7.619 km/s
True Right ascension
18h 00m 50s
True Declination
0° 00' 00"
Sunlit
Object was in full shadow at epoch
Visualization orbit readout
Latitude
Unknown
Longitude
Unknown
Altitude
Unknown
Speed
Unknown
Apparent Right ascension
Unknown
Apparent Declination
Unknown
Sunlit
N/A
Visualization observer readout
Local Sidereal Time
21:26:06
Azimuth
Unknown
Elevation
Unknown
Doppler factor
Unknown
Orbital elements
Apogee altitude
490.029 km
Perigee altitude
480.959 km
Semi-major axis
6,863.631 km
Eccentricity
0.00066
Inclination
97.4785°
RAAN
270.2101°
Arg. of periapsis
264.8826°
True anomaly
95.2412°
Mean anomaly
95.1658°
Eccentric anomaly
95.2035°
Mean motion
3.81691 °/min
Orbital period
94.32 mins
BSTAR
0.00018455
Loading maneuver chart data...
Computing Atmospheric mass density...
Loading historical data...
Loading historical data...
Loading historical data...
Loading historical data...
Loading historical data...
Loading historical data...
Loading historical data...

Documentation

Showing up to 5 results
|